394P/PanSTARRS (2019)

Japanese version
Home page
Updated on May 17, 2020

---------------------------------------------------------------------

* Profile

Designation 394P/2020 F4
Discovery Date March 24, 2020
Magnitude 20.7 mag
Discoverer Pan-STARRS 1 telescope (Haleakala)

* Orbital Elements

Epoch 2019 Dec. 23.0 TT = JDT 2458840.5                                         
T 2019 Nov. 30.45657 TT                                 Spoto                   
q   2.7379150            (2000.0)            P               Q                  
n   0.10920421     Peri.   54.52727     -0.87931499     -0.45304128             
a   4.3348737      Node    98.12463     +0.37460789     -0.84834170             
e   0.3683980      Incl.    8.52944     +0.29406475     -0.27398896             
P   9.03                                                                        
From 94 observations 2002 Apr. 1-2020 Apr. 1, mean residual 0".9.               
     Nongravitational parameters Y1 = +0.03, Y2 = -0.0017, Y3 = -0.0902.        

* Magnitudes Graph

        m1 = 14.0 + 5 log d + 10.0 log r

---------------------------------------------------------------------

The orbital elements are published on M.P.E.C. 2020-G64.
The magnitudes graphs are made with Comet for Windows.

---------------------------------------------------------------------

Copyright(C) Seiichi Yoshida (comet@aerith.net). All rights reserved.